Fergus Falls, MN

8:56 PM CST on January 22, 2017 (GMT -0600)
Fergus Falls Municipal-Mickelson

Weather History for KFFM - February, 2012

Change the Weather History Date:

Wednesday, February 15, 2012

  Actual Average Record
Temperature  
Mean Temperature 24 °F -  
Max Temperature 33 °F 19 °F 45 °F (1981)
Min Temperature 15 °F 0 °F -23 °F (1958)
Degree Days  
Heating Degree Days 41    
Moisture  
Dew Point 24 °F    
Average Humidity 96    
Maximum Humidity 100    
Minimum Humidity 81    
Precipitation  
Precipitation 0.00 in - - ()
Sea Level Pressure  
Sea Level Pressure 29.91 in    
Wind  
Wind Speed 1 mph (WNW)    
Max Wind Speed 9 mph    
Max Gust Speed -    
Visibility 7 miles    
Events Fog , Snow    
Averages and records for this station are not official NWS values.
T = Trace of Precipitation, MM = Missing Value Source: NWS Daily Summary

Daily Weather History Graph

Daily Weather History Graph

Search for Another Location

Airport or City:

Trip Planner

Search our weather history database for the weather conditions in past years. The results will help you decide how hot, cold, wet, or windy it might be!

Date:

Astronomy

Feb. 15, 2012 Rise Set
Actual Time 7:28 AM CST 5:49 PM CST
Civil Twilight 6:57 AM CST 6:20 PM CST
Nautical Twilight 6:22 AM CST 6:55 PM CST
Astronomical Twilight 5:47 AM CST 7:30 PM CST
Moon 2:33 AM CST (2/15) 11:34 AM CST (2/15)
Length of Visible Light 11h 23m
Length of Day
10h 21m
Last Quarter, 38% of the Moon is Illuminated
Feb 15
Last Quarter
Feb 21
New
Feb 29
First Quarter
Mar 8
Full
Mar 14
Last Quarter

Hourly Weather History & Observations

Time (CST) Temp. Windchill Dew Point Humidity Pressure Visibility Wind Dir Wind Speed Gust Speed Precip Events Conditions
12:13 AM 28.4 °F - 28.4 °F 100% 29.78 in 4.0 mi Calm Calm - N/A   Overcast
12:33 AM 28.4 °F - 28.4 °F 100% 29.79 in 3.0 mi Calm Calm - N/A   Overcast
12:53 AM 26.6 °F - 26.6 °F 100% 29.79 in 3.0 mi Calm Calm - N/A   Overcast
1:13 AM 26.6 °F - 26.6 °F 100% 29.79 in 3.0 mi Calm Calm - N/A   Overcast
1:33 AM 26.6 °F - 26.6 °F 100% 29.79 in 3.0 mi Calm Calm - N/A   Overcast
1:53 AM 24.8 °F - 24.8 °F 100% 29.80 in 1.0 mi Calm Calm - N/A   Mostly Cloudy
2:13 AM 23.0 °F - 23.0 °F 100% 29.81 in 0.5 mi Calm Calm - N/A Fog Light Freezing Fog
2:33 AM 21.2 °F - 21.2 °F 100% 29.81 in 0.8 mi Calm Calm - N/A   Overcast
2:53 AM 21.2 °F - 21.2 °F 100% 29.82 in 5.0 mi Calm Calm - N/A   Overcast
3:53 AM 19.4 °F - 19.4 °F 100% 29.84 in 7.0 mi Calm Calm - N/A   Clear
4:13 AM 19.4 °F - 19.4 °F 100% 29.85 in 5.0 mi Calm Calm - N/A   Clear
4:33 AM 19.4 °F - 19.4 °F 100% 29.86 in 4.0 mi Calm Calm - N/A   Scattered Clouds
4:53 AM 19.4 °F - 19.4 °F 100% 29.86 in 7.0 mi Calm Calm - N/A   Scattered Clouds
5:13 AM 19.4 °F - 19.4 °F 100% 29.86 in 10.0 mi Calm Calm - N/A   Clear
5:33 AM 19.4 °F - 19.4 °F 100% 29.86 in 7.0 mi Calm Calm - N/A   Clear
5:53 AM 19.4 °F - 17.6 °F 93% 29.87 in 7.0 mi Calm Calm - N/A   Clear
6:13 AM 17.6 °F - 17.6 °F 100% 29.87 in 7.0 mi Calm Calm - N/A   Clear
6:33 AM 17.6 °F - 15.8 °F 93% 29.87 in 7.0 mi Calm Calm - N/A   Clear
6:53 AM 19.4 °F - 19.4 °F 100% 29.87 in 10.0 mi Calm Calm - N/A   Clear
7:13 AM 17.6 °F - 15.8 °F 93% 29.88 in 7.0 mi Calm Calm - N/A   Clear
7:33 AM 17.6 °F - 15.8 °F 93% 29.89 in 5.0 mi Calm Calm - N/A   Clear
7:54 AM 15.8 °F - 14.0 °F 93% 29.90 in 5.0 mi Calm Calm - N/A   Clear
8:13 AM 17.6 °F - 17.6 °F 100% 29.90 in 7.0 mi Calm Calm - N/A   Scattered Clouds
8:33 AM 19.4 °F - 17.6 °F 93% 29.90 in 7.0 mi Calm Calm - N/A   Mostly Cloudy
8:53 AM 19.4 °F - 19.4 °F 100% 29.91 in 10.0 mi Calm Calm - N/A   Overcast
9:13 AM 21.2 °F - 21.2 °F 100% 29.92 in 10.0 mi Calm Calm - N/A   Overcast
9:33 AM 21.2 °F - 19.4 °F 93% 29.93 in 10.0 mi Calm Calm - N/A   Overcast
9:54 AM 21.2 °F - 21.2 °F 100% 29.93 in 7.0 mi Calm Calm - N/A   Mostly Cloudy
10:13 AM 24.8 °F - 21.2 °F 86% 29.94 in 10.0 mi Calm Calm - N/A   Scattered Clouds
10:53 AM 24.8 °F - 23.0 °F 93% 29.94 in 7.0 mi Calm Calm - N/A   Clear
11:13 AM 26.6 °F - 23.0 °F 86% 29.94 in 10.0 mi Calm Calm - N/A   Scattered Clouds
11:33 AM 26.6 °F - 24.8 °F 93% 29.95 in 7.0 mi Calm Calm - N/A   Scattered Clouds
11:54 AM 28.4 °F - 26.6 °F 93% 29.96 in 4.0 mi Calm Calm - N/A Snow Light Snow
12:13 PM 28.4 °F - 26.6 °F 93% 29.96 in 1.0 mi Calm Calm - N/A Snow Light Snow
12:33 PM 30.2 °F 22.6 °F 28.4 °F 93% 29.95 in 1.2 mi West 8.1 mph - N/A Snow Light Snow
12:53 PM 30.2 °F - 28.4 °F 93% 29.95 in 0.8 mi Calm Calm - N/A Snow Light Snow
1:13 PM 30.2 °F 26.7 °F 28.4 °F 93% 29.95 in 1.0 mi West 3.5 mph - N/A Snow Light Snow
1:53 PM 30.2 °F - 30.2 °F 100% 29.94 in 2.0 mi Calm Calm - N/A Snow Light Snow
2:33 PM 30.2 °F 23.4 °F 30.2 °F 100% 29.95 in 5.0 mi West 6.9 mph - N/A   Overcast
2:53 PM 30.2 °F 23.4 °F 28.4 °F 93% 29.95 in 7.0 mi WNW 6.9 mph - N/A   Mostly Cloudy
3:13 PM 30.2 °F 21.9 °F 30.2 °F 100% 29.96 in 10.0 mi WNW 9.2 mph - N/A   Scattered Clouds
3:33 PM 32.0 °F - 30.2 °F 93% 29.96 in 10.0 mi Calm Calm - N/A   Scattered Clouds
3:54 PM 32.0 °F - 30.2 °F 93% 29.97 in 7.0 mi Calm Calm - N/A   Mostly Cloudy
4:13 PM 32.0 °F - 30.2 °F 93% 29.97 in 10.0 mi Calm Calm - N/A   Scattered Clouds
4:33 PM 32.0 °F - 30.2 °F 93% 29.97 in 7.0 mi Calm Calm - N/A   Scattered Clouds
4:53 PM 32.0 °F - 30.2 °F 93% 29.98 in 7.0 mi Calm Calm - N/A   Mostly Cloudy
5:13 PM 33.8 °F 26.4 °F 28.4 °F 81% 29.98 in 10.0 mi West 9.2 mph - N/A   Overcast
5:33 PM 32.0 °F 24.2 °F 28.4 °F 87% 29.99 in 10.0 mi West 9.2 mph - N/A   Overcast
5:54 PM 32.0 °F 24.2 °F 28.4 °F 87% 29.99 in 10.0 mi WNW 9.2 mph - N/A   Overcast
6:13 PM 32.0 °F 25.6 °F 28.4 °F 87% 30.00 in 10.0 mi WNW 6.9 mph - N/A   Overcast
6:33 PM 30.2 °F 23.4 °F 28.4 °F 93% 30.00 in 10.0 mi WNW 6.9 mph - N/A   Mostly Cloudy
6:52 PM 30.2 °F 24.3 °F 28.4 °F 93% 30.00 in 10.0 mi West 5.8 mph - N/A   Overcast
7:13 PM 28.4 °F - 28.4 °F 100% 30.00 in 10.0 mi Calm Calm - N/A   Mostly Cloudy
7:33 PM 26.6 °F - 26.6 °F 100% 30.00 in 10.0 mi Calm Calm - N/A   Scattered Clouds
7:53 PM 26.6 °F - 26.6 °F 100% 30.01 in 10.0 mi Calm Calm - N/A   Clear
8:33 PM 26.6 °F - 26.6 °F 100% 30.01 in 10.0 mi Calm Calm - N/A   Clear
8:53 PM 24.8 °F - 24.8 °F 100% 30.01 in 5.0 mi Calm Calm - N/A   Clear
9:13 PM 24.8 °F - 24.8 °F 100% 30.02 in 10.0 mi Calm Calm - N/A   Clear
9:33 PM 21.2 °F - 21.2 °F 100% 30.03 in 0.5 mi Calm Calm - N/A Fog Light Freezing Fog
9:53 PM 21.2 °F - 21.2 °F 100% 30.03 in 0.5 mi Calm Calm - N/A Fog Light Freezing Fog
10:13 PM 21.2 °F - 21.2 °F 100% 30.03 in 0.8 mi Calm Calm - N/A   Mist
10:33 PM 23.0 °F - 23.0 °F 100% 30.04 in 2.0 mi Calm Calm - N/A   Clear
10:53 PM 21.2 °F - 21.2 °F 100% 30.03 in 1.5 mi Calm Calm - N/A   Mist
11:12 PM 19.4 °F - 19.4 °F 100% 30.03 in 1.5 mi Calm Calm - N/A   Mist
11:33 PM 19.4 °F - 19.4 °F 100% 30.04 in 4.0 mi Calm Calm - N/A   Clear
11:53 PM 19.4 °F - 17.6 °F 93% 30.04 in 3.0 mi Calm Calm - N/A   Clear